Location: Elstree
(51.6403°N, 0.2969°W)
Time: 15:23:56
(UTC+00:00)

SJ 16-02 - Pass Details

Date: 25 June 2021
Orbit: 606 x 616 km, 75.0° (Epoch: 29 July)

Event Time Altitude Azimuth Distance (km) Brightness Sun altitude
Rises 22:43:25 0° 335° (NNW) 2,877 6.8 -12.9°
Reaches altitude 10° 22:45:40 10° 334° (NNW) 1,968 5.4 -13.1°
Maximum altitude 22:50:03 78° 249° (WSW) 627 1.3 -13.3°
Enters shadow 22:52:53 21° 166° (SSE) 1,359 2.5 -13.4°
